Miscellaneous Local Product
Issued by NWS North Platte, NE

Home | Current Version | Previous Version | Text Only | Print | Product List | Glossary On
Versions: 1 2 3 4 5 6 7 8 9 10 11 12 13 14 15 16 17 18 19 20 21 22 23 24 25 26 27 28 29 30 31 32 33 34 35 36 37 38 39 40 41 42 43 44 45 46 47 48 49 50
761
AXUS43 KLBF 291610
MISLBF


WESTERN AND NORTH CENTRAL NEBRASKA HOURLY WEATHER ROUNDUP
NATIONAL WEATHER SERVICE NORTH PLATTE NE
1100 AM CDT FRI JUL 29 2016

NOTE: "FAIR" INDICATES FEW OR NO CLOUDS BELOW 12,000 FEET WITH NO
SIGNIFICANT WEATHER AND/OR OBSTRUCTIONS TO VISIBILITY.

NOTE: STATIONS NOT REPORTING VARIABLES SUCH AS SKY/WEATHER OR
PRESSURE ARE PROVIDED BY RAWS AND APRS NETWORKS AND ARE NOT UNDER
NATIONAL WEATHER SERVICE QUALITY CONTROL.

...OBSERVATIONS IN AND NEAR THE EASTERN PANHANDLE OF NEBRASKA...

CITY           SKY/WX    TMP DP  RH WIND       PRES   REMARKS
PINE RIDGE     SUNNY     73  57  57 E5        30.12F
CHADRON        SUNNY     73  57  57 NE7       30.11F
ALLIANCE       SUNNY     73  59  61 VRB6      30.14F
SIDNEY         SUNNY     75  56  51 VRB6      30.18F
CRESCENT LAKE    N/A     75  60  60 E5          N/A
$$

...OBSERVATIONS IN NORTHERN NEBRASKA AND FAR SOUTHERN SOUTH DAKOTA...

CITY           SKY/WX    TMP DP  RH WIND       PRES   REMARKS
WINNER         CLOUDY    69  63  81 SE9       30.12S
VALENTINE      PTSUNNY   68  59  73 SE3       30.14S
THEDFORD       CLOUDY    66  63  89 CALM      30.16S
AINSWORTH      CLOUDY    66  63  89 CALM      30.15R
O`NEILL        CLOUDY    71  59  66 NE5       30.13S
ORD            LGT RAIN  68  64  87 CALM      30.11S
BROKEN BOW     CLOUDY    67  64  90 NE6       30.13S
VALENTINE NWR    N/A     65  60  85 SE3         N/A
BUTTE            N/A     70  60  71 E6          N/A
HALSEY           N/A     65  62  89 CALM        N/A
EWING            N/A     72  63  73 E3          N/A
$$

...OBSERVATIONS IN SOUTHWEST NEBRASKA AND FAR NORTHEAST COLORADO...

CITY           SKY/WX    TMP DP  RH WIND       PRES   REMARKS
WRAY           FAIR      75  57  53 SE7       30.17R
IMPERIAL       MOSUNNY   72  62  71 E6        30.15S
OGALLALA       SUNNY     75  62  62 E6        30.14S
NORTH PLATTE   SUNNY     73  64  73 E3        30.13F
MCCOOK         MOSUNNY   73  64  73 VRB5      30.13F
LEXINGTON      MOSUNNY   71  64  79 CALM      30.12S
STAPLETON        N/A     66  63  90 CALM        N/A
GOTHENBURG       N/A     71  62  74 CALM        N/A
CALLAWAY         N/A     69  65  88 CALM        N/A
$$

...OBSERVATIONS IN CENTRAL LINCOLN COUNTY AREA...

CITY           SKY/WX    TMP DP  RH WIND       PRES   REMARKS
N.P. AIRPORT   SUNNY     73  64  73 E3        30.13F
N.P. DOWNTOWN    N/A     70  65  83 N3          N/A
N.P. SOUTHEAST   N/A     71  64  80 CALM        N/A
N.P. HILLCREST   N/A     69  64  84 NE5         N/A
$$

...SOME OBSERVATIONS FROM AROUND THE REGION...

CITY           SKY/WX    TMP DP  RH WIND       PRES   REMARKS
DENVER         MOSUNNY   73  57  57 VRB5      30.19F
LARAMIE        SUNNY     67  53  61 VRB3      30.30S
CHEYENNE       SUNNY     70  55  59 S8        30.23F
SCOTTSBLUFF    SUNNY     73  60  63 VRB3      30.15S
RAPID CITY     MOSUNNY   72  58  61 SE7       30.11F
BISMARCK       SUNNY     75  58  55 CALM      30.09S
PIERRE         PTSUNNY   73  60  63 CALM      30.08S
SIOUX FALLS    MOSUNNY   73  58  59 NE5       30.11R
OMAHA          CLOUDY    74  61  63 N7        30.07S
GRAND ISLAND   PTSUNNY   73  64  73 E3        30.10F
KANSAS CITY    PTSUNNY   79  64  60 CALM      30.04R
WICHITA        PTSUNNY   76  68  76 NW12      30.04F
OKLAHOMA CITY  CLOUDY    72  69  90 S8        30.02F
DALLAS         MOSUNNY   88  70  55 SW9       30.02S HX  93
AMARILLO       LGT RAIN  73  64  73 NE13      30.21R
DODGE CITY     PTSUNNY   74  64  71 E8        30.13R
HAYS           CLOUDY    75  61  60 E6        30.08F
GOODLAND       LGT RAIN  68  62  81 SE3       30.17S
$$




USA.gov is the U.S. government's official web portal to all federal, state and local government web resources and services.